Location: Malvern Link
(52.1333°N, 2.3000°W)
Time: 00:38:38
(UTC+00:00)

Meteor 1-12 Rocket - Pass Details

Date: 18 September 2020
Orbit: 854 x 927 km, 81.2° (Epoch: 23 October)

Event Time Altitude Azimuth Distance (km) Brightness Sun altitude
Rises 19:51:09 0° 189° (S) 3,536 7.3 -15.0°
Reaches altitude 10° 19:53:37 10° 189° (S) 2,590 6.6 -15.4°
Maximum altitude 19:59:32 86° 101° (E) 907 4.3 -16.2°
Drops below altitude 10° 20:05:23 10° 14° (NNE) 2,558 6.8 -17.0°
Sets 20:07:49 0° 14° (NNE) 3,490 7.6 -17.3°
